Regional Weather Roundup
Issued by NWS

Home | Current Version | Previous Version | Text Only | Print | Product List | Glossary Off
Versions: 1 2 3 4 5 6 7 8 9 10 11 12 13 14 15 16 17 18 19 20 21 22 23 24 25 26 27 28 29 30 31 32 33 34 35 36 37 38 39 40 41 42 43 44 45 46 47 48 49 50

000
ASUS43 KMKX 171100
RWRWI

WISCONSIN REGIONAL WEATHER ROUNDUP
NATIONAL WEATHER SERVICE MILWAUKEE/SULLIVAN WI
600 AM CDT TUE OCT 17 2017

NOTE: "FAIR" INDICATES FEW OR NO CLOUDS BELOW 12,000 FEET WITH NO
SIGNIFICANT WEATHER AND/OR OBSTRUCTIONS TO VISIBILITY.

WIZ001-002-006>008-014>016-023>028-171200-
NORTHWEST WISCONSIN

CITY           SKY/WX    TMP DP  RH WIND       PRES   REMARKS
SUPERIOR ARPT  CLOUDY    44  39  82 SW8       29.95R
ASHLAND        CLOUDY    47  38  71 SW10      29.94R
HAYWARD        CLOUDY    35  32  88 CALM      29.98R
SIREN          CLEAR     38  36  92 CALM      29.98R
CUMBERLAND     CLEAR     37  34  87 CALM      29.99R
RICE LAKE      CLEAR     37  36  98 CALM      30.01R
CHETEK         CLEAR     35  35 100 CALM      29.99S
LADYSMITH      CLOUDY    37  36  94 CALM      30.00S
EAU CLAIRE     NOT AVBL
MENOMONIE      CLEAR     41  38  90 CALM      30.00R
NEW RICHMOND   PTCLDY    41  37  84 CALM      29.99S
OSCEOLA        CLOUDY    37  37 100 CALM      30.02R
$$

WIZ003>005-009-010-017-018-171200-
NORTH CENTRAL WISCONSIN

CITY           SKY/WX    TMP DP  RH WIND       PRES   REMARKS
MANITOWISH WTR CLOUDY    36  36 100 CALM      29.96R
ARBOR VITAE    CLOUDY    39  37  93 CALM      29.96R
WOODRUFF       CLOUDY    39  37  93 CALM      29.96R
RHINELANDER    CLEAR     39  36  89 W6        29.98R WCI  35
EAGLE RIVER    CLOUDY    37  35  92 CALM      29.96R
LAND O LAKES   CLOUDY    33  32  96 CALM      29.97R
PHILLIPS       CLEAR     36  35  97 CALM      29.98R
TOMAHAWK       CLEAR     34  32  92 CALM      29.99R
MEDFORD        CLEAR     43  36  76 SW5       30.00R
MERRILL        CLEAR     37  35  92 CALM      30.00R
$$

WIZ029-030-035-036-043>047-171200-
CENTRAL WISCONSIN

CITY           SKY/WX    TMP DP  RH WIND       PRES   REMARKS
WAUSAU         CLOUDY    45  37  73 S5        29.99S
MOSINEE        CLEAR     43  37  81 SW3       30.01S
MARSHFIELD     CLEAR     45  36  70 SW6       30.00S
STEVENS POINT  CLOUDY    37  37  97 S3        30.03R
WAUPACA        CLEAR     44  39  83 CALM      30.02S
WAUTOMA        CLEAR     35  34  96 MISG      30.04S
WISC RAPIDS    CLEAR     45  38  76 SW7       30.03R
CAMP DOUGLAS   NOT AVBL
$$

WIZ011>013-019>022-031-037>040-048>050-171200-
NORTHEAST WISCONSIN

CITY           SKY/WX    TMP DP  RH WIND       PRES   REMARKS
ANTIGO         CLOUDY    41  36  82 CALM      29.99R
SHAWANO        CLEAR     47  38  71 CALM      30.00R
OCONTO         PTCLDY    49  38  64 SW9       29.98S
STURGEON BAY   CLEAR     54  40  59 SW15      29.98S
GREEN BAY      CLEAR     48  41  76 S6        30.01S
MANITOWOC      CLEAR     54  39  57 W14       30.02S
APPLETON       PTCLDY    48  36  61 SW10      30.01S
CLINTONVILLE   CLEAR     43  37  81 SW6       30.01R
OSHKOSH        CLEAR     49  39  68 SW10      30.03R
$$

WIZ032>034-041-042-053>061-171200-
SOUTHWEST WISCONSIN

CITY           SKY/WX    TMP DP  RH WIND       PRES   REMARKS
LA CROSSE      CLEAR     51  42  71 S6        30.04R
SPARTA         CLEAR     50  40  68 SW3       30.05R
VIROQUA        CLEAR     49  41  73 CALM      30.06R
BOSCOBEL       CLEAR     42  39  89 CALM      30.09R
PRAIRIE DU CHI CLEAR     54  39  56 CALM      30.09R
PLATTEVILLE    CLOUDY    47  41  80 S8        30.12S
$$

WIZ056-057-062-063-064-067-068-171200-
SOUTH CENTRAL WISCONSIN

CITY           SKY/WX    TMP DP  RH WIND       PRES   REMARKS
REEDSBURG      CLEAR     50  39  67 SW8       30.06F
BARABOO/DELLS  CLEAR     50  38  62 SW6       30.06F
LONE ROCK      NOT AVBL
MINERAL POINT  CLEAR     48  41  76 S6        30.10S
MADISON        CLEAR     52  39  61 SW8       30.09R
MIDDLETON      CLEAR     52  39  60 SW12      30.09R
WATERTOWN      CLEAR     48  40  73 SW9       30.09S
MONROE         CLEAR     45  37  76 SW15      30.12R
JANESVILLE     CLEAR     48  37  66 SW12      30.13R
$$

WIZ051-052-058>065-066-070>072-171200-
SOUTHEAST WISCONSIN

CITY           SKY/WX    TMP DP  RH WIND       PRES   REMARKS
MILWAUKEE      PTCLDY    50  39  66 SW14      30.11S
WAUKESHA       CLEAR     46  36  66 S7        30.12S
MILWAUKEE/TIMM CLEAR     50  34  53 SW10G16   30.11S
RACINE         CLEAR     51  38  60 SW13      30.13F
BURLINGTON     CLEAR     48  41  76 SW12      30.13S
KENOSHA        CLEAR     50  38  63 SW12      30.14S
FOND DU LAC    CLEAR     50  37  61 SW16G22   30.04S
SHEBOYGAN      CLEAR     53  40  61 SW12      30.04S
WEST BEND      CLEAR     52  36  54 SW10G18   30.07S
JUNEAU         CLEAR     46  38  72 S8        30.08F
$$

LSZ147-162-171200-
LAKE SUPERIOR

STATION/POSITION TIME  TEMP    WIND        PRES    WAVE
                       AIR SEA DIR/SP/G            HT/PER
                 (UTC) (F)     (DEG/KT/KT) (MB)    (FT/S)
W MID LAKE BUOY  0950   54 53              1011.3R   3/ 5
DEVILS ISLAND    1000   55     230/ 17/ 19 1012.8R
PORT WING        0940          150/  2/  6 1013.2
SAXON HARBOR     1030   49     190/  6/  9 1013.2R
$$

LMZ867-665-643>646-171200-
LAKE MICHIGAN

STATION/POSITION TIME  TEMP    WIND        PRES    WAVE
                       AIR SEA DIR/SP/G            HT/PER
                 (UTC) (F)     (DEG/KT/KT) (MB)    (FT/S)
S GREEN BAY BUOY 1030   55 58  220/ 17/ 23 1014.7S
N MID LAKE BUOY  0950   58 60  220/ 23/ 27 1014.3S   7/ 7
NORTHPORT PIER   1040   54     250/  9/ 17 1014.2S
KEWAUNEE LAKESHO 1024   55     250/ 11/ 19 1014.9
SHEBOYGAN LAKESH 1000   56     230/ 15/ 19 1017.0F
PORT WASHINGTON  1040   56     250/ 13/ 20 1018.6F
MILWAUKEE LAKESH 1030   53     240/ 15/ 19   N/A
S MID LAKE BUOY  0950   60 62  240/ 19/ 23 1021.0F   4/ 5
KENOSHA   LAKESH 1000   53     230/ 12/ 18 1020.7
$$

TC  - TEMPERATURE IN CELSIUS
VSB - VISIBILITY IN STATUTE MILES
WCI - WIND CHILL INDEX
HX  - HEAT INDEX




USA.gov is the U.S. government's official web portal to all federal, state and local government web resources and services.